Weather Roundup
Issued by NWS Corpus Christi, TX

Home | Current Version | Previous Version | Text Only | Print | Product List | Glossary On
Versions: 1 2 3 4 5 6 7 8 9 10 11 12 13 14 15 16 17 18 19 20 21 22 23 24 25 26 27 28 29 30 31 32 33 34 35 36 37 38 39 40 41 42 43 44 45 46 47 48 49 50
000
ASUS44 KCRP 111410
HRRCRP

SOUTH TEXAS REGIONAL WEATHER ROUNDUP
NATIONAL WEATHER SERVICE CORPUS CHRISTI TX
800 AM CST SUN DEC 11 2016


TXZ229>244-111500-
...CORPUS CHRISTI AREA OBSERVATIONS...

CITY           SKY/WX    TMP DP  RH WIND       PRES   REMARKS
CORPUS CHRISTI CLOUDY    55  55 100 CALM      30.08S FOG
NAS CORPUS CHR CLOUDY    53  32  44 CALM      30.08S HAZE
ROCKPORT       CLOUDY    57  56  96 CALM      30.08R FOG
KINGSVILLE NAS CLOUDY    55  55 100 CALM      30.09R
ALICE          CLOUDY    53  52  96 CALM      30.08R FOG
ORANGE GROVE   CLOUDY    53  53 100 N3        30.09S FOG
FALFURRIAS     CLOUDY    53  52  96 CALM      30.08R VSB 3/4
$$

...VICTORIA AREA OBSERVATIONS...

CITY           SKY/WX    TMP DP  RH WIND       PRES   REMARKS
VICTORIA       CLOUDY    60  59  96 SW3       30.07S FOG
BEEVILLE       CLOUDY    47  47 100 CALM      30.07S FOG
PLEASANTON     CLOUDY    50  50  99 CALM      30.06F FOG
SAN ANTONIO    DRZL/FOG  52  51  97 CALM      30.04F VSB 1/2
$$

...LAREDO AREA OBSERVATIONS...

CITY           SKY/WX    TMP DP  RH WIND       PRES   REMARKS
LAREDO         CLOUDY    50  49  96 SE3       30.08S
COTULLA        FOG       50  48  93 S3        30.06F VSB 1/2
DEL RIO        CLOUDY    47  47 100 SE5       30.04F FOG
MCALLEN        FOG       55  53  93 SE5       30.09S VSB 1/8
HEBBRONVILLE   FOG       51  50  98 CALM      30.08S VSB 1/2
$$

...OTHER TEXAS OBSERVATIONS...

CITY           SKY/WX    TMP DP  RH WIND       PRES   REMARKS
BROWNSVILLE    PTCLDY    54  52  93 NW7       30.11R
HOUSTON        LGT RAIN  65  60  84 S8        30.08R
COL. STATION   CLOUDY    61  59  93 S14       30.03S
AUSTIN         DRZL/FOG  54  54 100 S9        30.02F VSB 1/4
WACO           CLOUDY    54  54 100 S14       29.99F FOG
FORT WORTH     LGT RAIN  50  49  96 S16       29.92F FOG
WICHITA FALLS  CLOUDY    55  51  86 S22       29.79F
LUBBOCK        CLOUDY    45  36  70 SW13      29.80R
EL PASO        MOCLDY    54  30  40 S12       30.04S
$$

...MARINE OBSERVATIONS...

STATION/POSITION TIME  SKY/WX   TEMP    WIND        PRES    VSBY  WAVE   SWELL
                                AIR SEA DIR/SP/G                  HT/PER HT/PER
                 (UTC)          (F)     (DEG/KT/KT) (MB)    (MI)  (FT/S) (FT/S)
PORT ARANSAS     1300            57 61  230/  4/  5 1018.1R
BUOY 90 E PORT A 1250            74 76  140/ 23/ 27 1018.2          7/ 7   2/13
BUOY 45 SE BAFFI 1250            69 74  210/ 12/ 14 1017.5          7/ 8   7/ 8
BUOY 200 E PT IS 1250            73 76  120/ 14/ 17 1020.3          6/ 8   5/ 8
BUOY 15 E GALVES 1250            68 65  160/ 14/ 16 1019.1          5/ 6   2/14
$$




USA.gov is the U.S. government's official web portal to all federal, state and local government web resources and services.